User: anonymous   Login
Location: Drayton Valley
(53.2170°N, 114.9830°W)
Time: 16:05:30
(UTC-06:00)
Language:

MOZ.5/SAFIR/RUBIN 5/SL-8 - Orbit

View from above orbital plane
View from above orbital plane
View from above satellite
View from above satellite

Ground track
Ground track

The orbit data is extracted from the following two-line orbital elements,

1 28898U 05043G   16273.17013788  .00000130  00000-0  36239-4 0  9992
2 28898  97.8926  68.8430 0018512 289.8852  70.0354 14.60129785581743
Epoch (UTC): 29 September 2016 04:04:59
Eccentricity: 0.0018512
inclination: 97.8926°
perigee height: 679 km
apogee height: 706 km
right ascension of ascending node: 68.8430°
argument of perigee: 289.8852°
revolutions per day: 14.60129785
mean anomaly at epoch: 70.0354°
orbit number at epoch: 58174

The dashed part of the orbit path shows where the satellite is in the earth's shadow,  

DLR